Flag for Croatia Weather past 2 weeks in Dubrovnik, Croatia

Now
79 °F

Passing clouds.


Feels Like: 81 °F
Forecast: 67 / 80 °F
Wind: 12 mph from South

Location: Dubrovnik / Cilipi

Current Time: Aug 27, 2014 at 4:00:31 PM

Latest Report: Aug 27, 2014 at 3:30 PM


Visibility: N/A

Pressure: 29.89 "Hg

Humidity: 70%

Dew point: 68 °F

Location of DubrovnikLocation

Historic Weather in Dubrovnik — Graph

°F

Dubrovnik temperature yesterday

Maximum temperature yesterday: 79 °F (at 11:30 AM)
Minimum temperature yesterday: 63 °F (at 5:30 AM)
Average temperature yesterday: 73 °F

Past Weeks' High & Low Weather Summary

 TemperatureHumidityPressure
High88 °F (Aug 12, 6:30 PM)100% (Aug 22, 5:00 AM)30.04 "Hg (Aug 22, 5:00 AM)
Low63 °F (Aug 26, 5:30 AM)33% (Aug 14, 9:30 AM)29.80 "Hg (Aug 14, 6:00 PM)
Average76 °F65%29.94 "Hg
* Reported Aug 12 3:00 PM — Aug 27 3:00 PM, Dubrovnik, Weather by CustomWeather, © 2014

Note: Actual official high and low records may vary slightly from our data, if they occured in-between our weather recording intervals... More about our weather records

Advertising

Dubrovnik weather history for previous 24 hours

 ConditionsComfort  
Time TempWeatherWind HumidityBarometerVisibility
3:00 PM
Aug 27
81 °FPassing clouds.14 mph62%29.89 "HgN/A
2:30 PM81 °FPassing clouds.13 mph58%29.89 "HgN/A
2:00 PM81 °FPassing clouds.14 mph58%29.89 "HgN/A
1:30 PM81 °FPassing clouds.15 mph58%29.89 "HgN/A
1:00 PM81 °FPassing clouds.15 mph58%29.89 "HgN/A
12:30 PM81 °FPassing clouds.15 mph54%29.89 "HgN/A
12:00 PM81 °FPassing clouds.13 mph54%29.92 "HgN/A
11:30 AM82 °FPassing clouds.13 mph48%29.89 "HgN/A
11:00 AM82 °FPassing clouds.13 mph45%29.89 "HgN/A
10:30 AM81 °FSunny.14 mph48%29.92 "Hg10 mi
10:00 AM81 °FSunny.12 mph48%29.92 "Hg10 mi
9:30 AM79 °FPassing clouds.10 mph54%29.92 "HgN/A
9:00 AM75 °FPassing clouds.8 mph61%29.92 "HgN/A
8:30 AM73 °FSunny.10 mph57%29.89 "Hg10 mi
8:00 AM73 °FSunny.10 mph61%29.89 "Hg10 mi
7:30 AM72 °FSunny.10 mph61%29.89 "Hg10 mi
7:00 AM70 °FClear.9 mph64%29.89 "Hg10 mi
6:30 AM68 °FClear.9 mph69%29.89 "Hg10 mi
6:00 AM68 °FClear.8 mph69%29.89 "Hg10 mi
5:30 AM68 °FClear.9 mph69%29.89 "Hg10 mi
5:00 AM70 °FClear.10 mph64%29.89 "Hg10 mi
4:30 AM70 °FClear.10 mph60%29.89 "Hg10 mi
4:00 AM68 °FClear.10 mph73%29.89 "Hg10 mi
3:30 AM68 °FClear.10 mph73%29.92 "Hg10 mi
3:00 AM68 °FClear.8 mph73%29.92 "Hg10 mi
2:30 AM70 °FClear.6 mph73%29.95 "Hg10 mi
2:00 AM68 °FClear.8 mph78%29.95 "Hg10 mi
1:30 AM70 °FClear.5 mph73%29.95 "Hg10 mi
1:00 AM70 °FClear.6 mph73%29.95 "Hg10 mi
12:30 AM70 °FClear.5 mph78%29.95 "Hg10 mi
12:00 AM70 °FClear.9 mph73%29.95 "Hg10 mi
11:30 PM
Aug 26
70 °FClear.9 mph78%29.95 "Hg10 mi
11:00 PM70 °FClear.7 mph78%29.95 "Hg10 mi
10:30 PM70 °FClear.6 mph83%29.95 "Hg10 mi
10:00 PM70 °FPassing clouds.5 mph83%29.95 "HgN/A
9:30 PM72 °FClear.3 mph83%29.95 "Hg10 mi
9:00 PM72 °FClear.5 mph83%29.98 "Hg10 mi
8:30 PM72 °FSunny.1 mph78%29.95 "Hg10 mi
8:00 PM72 °FPassing clouds.3 mph83%29.95 "HgN/A
7:30 PM73 °FPassing clouds.5 mph78%29.95 "HgN/A
7:00 PM75 °FPassing clouds.5 mph74%29.95 "HgN/A
6:30 PM77 °FPassing clouds.5 mph74%29.95 "HgN/A
6:00 PM79 °FSunny.2 mph65%29.95 "Hg10 mi
5:30 PM79 °FPassing clouds.2 mph65%29.95 "HgN/A
5:00 PM79 °FPassing clouds.6 mph65%29.95 "HgN/A
4:30 PM79 °FPassing clouds.7 mph61%29.98 "HgN/A
4:00 PM79 °FPassing clouds.5 mph58%29.98 "HgN/A
Weather by CustomWeather, © 2014

See weather overviewHow to use our weather pages